Location: Borotín
(49.5055°N, 14.6142°E)
Time: 12:41:37
(UTC+00:00)

CZ-2D R/B - Pass Details

Date: 27 May 2022
Orbit: 791 x 845 km, 98.7° (Epoch: 26 June)

Event Time Altitude Azimuth Distance (km) Brightness Sun altitude
Rises 02:09:59 0° 6° (N) 3,385 6.3 -7.5°
Reaches altitude 10° 02:12:44 10° 354° (N) 2,439 5.2 -7.2°
Maximum altitude 02:17:00 25° 302° (WNW) 1,612 3.6 -6.7°
Drops below altitude 10° 02:21:13 10° 248° (WSW) 2,397 4.0 -6.2°
Enters shadow 02:22:13 - 243° (WSW) 2,724 4.2 -6.1°
